Find Starlink 4170

NORAD ID: 53140 Int'l Des: 2022-083 Owner: SPXS Country: US Constellation: starlink operational
LEOCIRCULAR

当前视图

正在加载3D地球...

About Starlink 4170

Starlink 4170 (NORAD 53140) is a starlink constellation satellite (v1.5) launched Jul 17, 2022 by SPXS of US. It operates in LEO, CIRCULAR orbit with a mass of 297.00 kg.

关于 Starlink 4170

正在加载描述...

即将过境

Passes for default location (London). Set your location on the main map for personalized predictions.

高度历史

Loading altitude history...

两行轨道根数

1 53140U 22083J 26167.49381391 .00000157 00000-0 27945-4 0 9992
2 53140 53.1617 90.4809 0001340 90.0818 270.0327 15.08835039216138
Epoch: Jun 16, 2026 • Age: 12 hours

当前状态

高度 543.5 km
速度 7.60 km/s
星下点 44.22°N, 36.02°W
发射日期 Jul 17, 2022
运行时间 3.9 years
类型 internet

技术详情

分类 Payload
质量 297.00 kg
干质量 275.00 kg
总质量 297.00 kg
长度 0.20 m
直径 2.80 m
跨度 9.00 m
形状 Box + pan
制造商 SPXS
平台类型 Starlink
阶段状态 In Orbit
所有者/国家 SPXS/US

Most Searched